Check out our new BloomSky Weather System.

Active alerts

Houston, TX
  Details for Houston, TX Dense Fog Advisory


Thunder radar  blitzortung!


Rain radar more information rain snow radar


Visit our other weather sites:

Template documentation
and downloads

And another site



Weather Underground History page Text

Daily Summary for August 29, 2017 Units:  English    Metric   Both
« Previous Day
Next Day »
Daily Weekly Monthly Yearly Custom
  High: Low: Average:
Temperature: 76.3 °F 70.3 °F 71.7 °F
Dew Point: 72.0 °F 69.6 °F 70.7 °F
Humidity: 100 % 85 % 97 %
Wind Speed: 21.0 mph 1.0 mph 6 mph
Wind Gust: 24.0 mph - -
Wind:- - WNW
Pressure: 29.75 in 29.68 in -
Precipitation: 1.69 in    
Historical Graphs
 
 
Tabular Data for August 29, 2017
Time Temperature Dew Point Pressure Wind Wind Speed Wind Gust Humidity Rainfall Rate (Hourly)
00:03 70.9 °F 70.9 °F 29.73 in NW 3.0 mph 14.0 mph 100 % 0.11 in
00:08 70.9 °F 70.9 °F 29.73 in NW 6.0 mph 14.0 mph 100 % 0.13 in
00:13 70.9 °F 70.9 °F 29.73 in NW 6.0 mph 19.0 mph 100 % 0.15 in
00:18 70.9 °F 70.9 °F 29.73 in North 3.0 mph 19.0 mph 100 % 0.17 in
00:23 70.9 °F 70.9 °F 29.73 in NW 1.0 mph 19.0 mph 100 % 0.19 in
00:28 70.9 °F 70.9 °F 29.73 in NNW 6.0 mph 14.0 mph 100 % 0.20 in
00:33 70.9 °F 70.9 °F 29.73 in NNW 6.0 mph 14.0 mph 100 % 0.22 in
00:38 70.9 °F 70.9 °F 29.73 in North 3.0 mph 14.0 mph 100 % 0.22 in
00:43 70.7 °F 70.7 °F 29.73 in WNW 3.0 mph 11.0 mph 100 % 0.24 in
00:48 70.7 °F 70.7 °F 29.74 in NNW 4.0 mph 13.0 mph 100 % 0.25 in
00:53 70.7 °F 70.7 °F 29.73 in North 7.0 mph 15.0 mph 100 % 0.26 in
00:58 70.7 °F 70.7 °F 29.74 in NW 7.0 mph 15.0 mph 100 % 0.27 in
01:03 70.5 °F 70.5 °F 29.73 in NW 3.0 mph 15.0 mph 100 % 0.26 in
01:08 70.5 °F 70.5 °F 29.73 in WNW 4.0 mph 13.0 mph 100 % 0.26 in
01:13 70.5 °F 70.5 °F 29.73 in WNW 8.0 mph 16.0 mph 100 % 0.25 in
01:18 70.5 °F 70.5 °F 29.73 in WNW 6.0 mph 16.0 mph 100 % 0.23 in
01:23 70.5 °F 70.5 °F 29.73 in NW 2.0 mph 16.0 mph 100 % 0.22 in
01:28 70.5 °F 70.5 °F 29.73 in NNE 8.0 mph 12.0 mph 100 % 0.22 in
01:33 70.5 °F 70.5 °F 29.73 in NNW 6.0 mph 15.0 mph 100 % 0.22 in
01:38 70.5 °F 70.5 °F 29.73 in ENE 1.0 mph 15.0 mph 100 % 0.23 in
01:43 70.5 °F 70.5 °F 29.73 in NNW 4.0 mph 15.0 mph 100 % 0.23 in
01:48 70.5 °F 70.5 °F 29.73 in NNE 4.0 mph 12.0 mph 100 % 0.22 in
01:54 70.3 °F 70.3 °F 29.73 in NNW 5.0 mph 12.0 mph 100 % 0.22 in
01:59 70.5 °F 70.5 °F 29.73 in WNW 3.0 mph 12.0 mph 100 % 0.21 in
02:04 70.5 °F 70.5 °F 29.73 in NNW 7.0 mph 11.0 mph 100 % 0.21 in
02:09 70.5 °F 70.5 °F 29.72 in NNW 5.0 mph 11.0 mph 100 % 0.22 in
02:14 70.5 °F 70.5 °F 29.73 in ENE 4.0 mph 12.0 mph 100 % 0.23 in
02:19 70.5 °F 70.5 °F 29.72 in NW 2.0 mph 12.0 mph 100 % 0.25 in
02:24 70.5 °F 70.5 °F 29.72 in North 6.0 mph 12.0 mph 100 % 0.30 in
02:29 70.5 °F 70.5 °F 29.72 in NW 3.0 mph 11.0 mph 100 % 0.30 in
02:34 70.5 °F 70.5 °F 29.72 in NW 5.0 mph 11.0 mph 100 % 0.30 in
02:39 70.5 °F 70.5 °F 29.72 in WNW 3.0 mph 15.0 mph 100 % 0.31 in
02:44 70.5 °F 70.5 °F 29.72 in NW 3.0 mph 15.0 mph 100 % 0.32 in
02:49 70.5 °F 70.5 °F 29.71 in West 3.0 mph 15.0 mph 100 % 0.33 in
02:54 70.5 °F 70.5 °F 29.71 in West 3.0 mph 14.0 mph 100 % 0.32 in
02:59 70.5 °F 70.5 °F 29.71 in WNW 4.0 mph 17.0 mph 100 % 0.32 in
03:04 70.3 °F 70.3 °F 29.71 in WNW 2.0 mph 17.0 mph 100 % 0.31 in
03:09 70.3 °F 70.3 °F 29.70 in NW 4.0 mph 17.0 mph 100 % 0.29 in
03:14 70.3 °F 70.3 °F 29.70 in NW 5.0 mph 16.0 mph 100 % 0.26 in
03:19 70.3 °F 70.3 °F 29.70 in NE 8.0 mph 16.0 mph 100 % 0.24 in
03:24 70.3 °F 70.3 °F 29.70 in NNE 7.0 mph 12.0 mph 100 % 0.17 in
03:29 70.3 °F 70.3 °F 29.70 in NW 7.0 mph 12.0 mph 100 % 0.17 in
03:34 70.3 °F 70.3 °F 29.70 in NW 5.0 mph 11.0 mph 100 % 0.17 in
03:39 70.3 °F 70.3 °F 29.69 in WNW 2.0 mph 12.0 mph 100 % 0.18 in
03:44 70.3 °F 70.3 °F 29.69 in WSW 4.0 mph 16.0 mph 100 % 0.16 in
03:49 70.3 °F 70.3 °F 29.69 in NW 4.0 mph 16.0 mph 100 % 0.15 in
03:54 70.3 °F 70.3 °F 29.69 in NNW 5.0 mph 16.0 mph 100 % 0.14 in
03:59 70.3 °F 70.3 °F 29.69 in North 7.0 mph 15.0 mph 100 % 0.13 in
04:04 70.3 °F 70.3 °F 29.69 in WNW 6.0 mph 15.0 mph 100 % 0.12 in
04:09 70.3 °F 70.3 °F 29.69 in NNW 7.0 mph 15.0 mph 100 % 0.12 in
04:14 70.3 °F 70.3 °F 29.68 in North 2.0 mph 15.0 mph 100 % 0.14 in
04:19 70.3 °F 70.3 °F 29.68 in NW 3.0 mph 12.0 mph 100 % 0.14 in
04:24 70.3 °F 70.3 °F 29.68 in NNW 8.0 mph 13.0 mph 100 % 0.15 in
04:29 70.5 °F 70.5 °F 29.69 in NNW 6.0 mph 13.0 mph 100 % 0.14 in
04:34 70.5 °F 70.5 °F 29.69 in SW 1.0 mph 14.0 mph 100 % 0.13 in
04:39 70.5 °F 70.5 °F 29.69 in SW 2.0 mph 14.0 mph 100 % 0.10 in
04:44 70.5 °F 70.5 °F 29.69 in North 11.0 mph 14.0 mph 100 % 0.09 in
04:49 70.5 °F 70.5 °F 29.69 in NW 2.0 mph 14.0 mph 100 % 0.11 in
04:54 70.5 °F 70.5 °F 29.68 in NNE 8.0 mph 14.0 mph 100 % 0.12 in
04:59 70.5 °F 70.5 °F 29.69 in NNW 6.0 mph 12.0 mph 100 % 0.13 in
05:04 70.5 °F 70.5 °F 29.69 in NNE 9.0 mph 12.0 mph 100 % 0.14 in
05:09 70.5 °F 70.5 °F 29.68 in NNW 3.0 mph 11.0 mph 100 % 0.14 in
05:14 70.5 °F 70.5 °F 29.69 in NNW 6.0 mph 12.0 mph 100 % 0.12 in
05:16 70.5 °F 70.5 °F 29.68 in NNW 6.0 mph 13.0 mph 100 % 0.12 in
05:21 70.5 °F 70.5 °F 29.68 in NNW 5.0 mph 13.0 mph 100 % 0.12 in
05:26 70.5 °F 70.5 °F 29.68 in NNW 5.0 mph 14.0 mph 100 % 0.11 in
05:31 70.5 °F 70.5 °F 29.68 in WNW 9.0 mph 16.0 mph 100 % 0.11 in
05:36 70.5 °F 70.5 °F 29.68 in NW 2.0 mph 16.0 mph 100 % 0.10 in
05:41 70.5 °F 70.5 °F 29.68 in NE 7.0 mph 16.0 mph 100 % 0.09 in
05:46 70.5 °F 70.5 °F 29.68 in NW 12.0 mph 14.0 mph 100 % 0.07 in
05:51 70.5 °F 70.5 °F 29.68 in NW 4.0 mph 12.0 mph 100 % 0.07 in
05:56 70.5 °F 70.5 °F 29.68 in NW 6.0 mph 12.0 mph 100 % 0.06 in
06:01 70.5 °F 70.5 °F 29.68 in WNW 3.0 mph 12.0 mph 100 % 0.05 in
06:06 70.5 °F 70.5 °F 29.68 in WNW 2.0 mph 12.0 mph 100 % 0.04 in
06:11 70.5 °F 70.5 °F 29.68 in NW 8.0 mph 12.0 mph 100 % 0.03 in
06:16 70.5 °F 70.5 °F 29.68 in NW 4.0 mph 10.0 mph 100 % 0.04 in
06:21 70.5 °F 70.5 °F 29.69 in NW 3.0 mph 10.0 mph 100 % 0.03 in
06:26 70.5 °F 70.5 °F 29.69 in NNW 3.0 mph 12.0 mph 100 % 0.03 in
06:31 70.5 °F 70.5 °F 29.69 in NW 4.0 mph 13.0 mph 100 % 0.03 in
06:36 70.5 °F 70.5 °F 29.69 in WNW 3.0 mph 14.0 mph 100 % 0.03 in
06:41 70.5 °F 70.5 °F 29.69 in NW 3.0 mph 14.0 mph 100 % 0.03 in
06:46 70.5 °F 70.5 °F 29.69 in NW 5.0 mph 14.0 mph 100 % 0.02 in
06:51 70.5 °F 70.5 °F 29.69 in WNW 7.0 mph 15.0 mph 100 % 0.02 in
06:56 70.5 °F 70.5 °F 29.69 in NW 4.0 mph 15.0 mph 100 % 0.03 in
07:01 70.5 °F 70.5 °F 29.69 in WNW 5.0 mph 15.0 mph 100 % 0.03 in
07:06 70.5 °F 70.5 °F 29.69 in North 2.0 mph 15.0 mph 100 % 0.04 in
07:11 70.5 °F 70.5 °F 29.69 in NW 3.0 mph 12.0 mph 100 % 0.04 in
07:16 70.5 °F 70.5 °F 29.69 in WNW 5.0 mph 12.0 mph 100 % 0.03 in
07:21 70.5 °F 70.5 °F 29.69 in SW 1.0 mph 12.0 mph 100 % 0.03 in
07:26 70.3 °F 70.3 °F 29.69 in NNW 3.0 mph 14.0 mph 100 % 0.03 in
07:31 70.3 °F 70.3 °F 29.69 in NW 4.0 mph 14.0 mph 100 % 0.02 in
07:36 70.3 °F 70.3 °F 29.69 in WNW 5.0 mph 14.0 mph 100 % 0.02 in
07:41 70.3 °F 70.3 °F 29.69 in NW 6.0 mph 12.0 mph 100 % 0.02 in
07:46 70.3 °F 70.3 °F 29.69 in NW 5.0 mph 12.0 mph 100 % 0.02 in
07:51 70.3 °F 70.3 °F 29.70 in NW 6.0 mph 12.0 mph 100 % 0.03 in
07:56 70.3 °F 70.3 °F 29.70 in NNW 10.0 mph 12.0 mph 100 % 0.02 in
08:01 70.3 °F 70.3 °F 29.70 in WNW 5.0 mph 12.0 mph 100 % 0.02 in
08:06 70.5 °F 70.5 °F 29.71 in NW 2.0 mph 12.0 mph 100 % 0.01 in
08:11 70.5 °F 70.5 °F 29.71 in NW 5.0 mph 12.0 mph 100 % 0.03 in
08:16 70.5 °F 70.5 °F 29.71 in NW 4.0 mph 11.0 mph 100 % 0.04 in
08:21 70.5 °F 70.5 °F 29.70 in NNW 5.0 mph 10.0 mph 100 % 0.05 in
08:26 70.5 °F 70.5 °F 29.70 in WNW 3.0 mph 11.0 mph 100 % 0.05 in
08:32 70.7 °F 70.7 °F 29.70 in NW 6.0 mph 11.0 mph 100 % 0.05 in
08:37 70.7 °F 70.7 °F 29.70 in NW 4.0 mph 11.0 mph 100 % 0.06 in
08:42 70.7 °F 70.7 °F 29.70 in WSW 7.0 mph 11.0 mph 100 % 0.06 in
08:47 70.7 °F 70.7 °F 29.70 in NW 9.0 mph 13.0 mph 100 % 0.06 in
08:52 70.9 °F 70.9 °F 29.71 in WNW 2.0 mph 13.0 mph 100 % 0.05 in
08:57 70.9 °F 70.9 °F 29.71 in NW 1.0 mph 13.0 mph 100 % 0.06 in
09:02 70.9 °F 70.9 °F 29.71 in North 4.0 mph 11.0 mph 100 % 0.06 in
09:07 70.7 °F 70.7 °F 29.71 in NW 7.0 mph 10.0 mph 100 % 0.07 in
09:12 70.7 °F 70.7 °F 29.71 in West 7.0 mph 12.0 mph 100 % 0.05 in
09:17 70.9 °F 70.9 °F 29.71 in NNW 6.0 mph 15.0 mph 100 % 0.05 in
09:22 70.9 °F 70.9 °F 29.71 in NE 14.0 mph 15.0 mph 100 % 0.04 in
09:27 70.9 °F 70.9 °F 29.71 in NW 5.0 mph 16.0 mph 100 % 0.05 in
09:32 70.9 °F 70.9 °F 29.71 in NE 5.0 mph 16.0 mph 100 % 0.05 in
09:37 70.9 °F 70.9 °F 29.71 in NW 4.0 mph 16.0 mph 100 % 0.05 in
09:42 71.1 °F 71.1 °F 29.72 in NW 5.0 mph 15.0 mph 100 % 0.05 in
09:47 71.1 °F 71.1 °F 29.72 in NW 8.0 mph 15.0 mph 100 % 0.06 in
09:52 71.1 °F 71.1 °F 29.72 in North 8.0 mph 15.0 mph 100 % 0.06 in
09:57 71.1 °F 71.1 °F 29.72 in West 4.0 mph 16.0 mph 100 % 0.06 in
10:02 71.1 °F 71.1 °F 29.72 in NW 5.0 mph 16.0 mph 100 % 0.07 in
10:07 71.1 °F 71.1 °F 29.73 in WNW 4.0 mph 16.0 mph 100 % 0.06 in
10:12 71.1 °F 71.1 °F 29.72 in West 5.0 mph 15.0 mph 100 % 0.07 in
10:17 71.1 °F 71.1 °F 29.73 in West 7.0 mph 16.0 mph 100 % 0.06 in
10:22 71.1 °F 71.1 °F 29.73 in NNW 8.0 mph 16.0 mph 100 % 0.07 in
10:27 71.1 °F 71.1 °F 29.73 in West 8.0 mph 16.0 mph 100 % 0.06 in
10:32 71.1 °F 71.1 °F 29.73 in NNW 5.0 mph 15.0 mph 100 % 0.07 in
10:37 71.1 °F 71.1 °F 29.73 in NNW 7.0 mph 15.0 mph 100 % 0.08 in
10:42 71.1 °F 71.1 °F 29.73 in NNW 4.0 mph 15.0 mph 100 % 0.09 in
10:47 71.1 °F 71.1 °F 29.73 in WNW 3.0 mph 12.0 mph 100 % 0.09 in
10:52 71.1 °F 71.1 °F 29.72 in NW 2.0 mph 15.0 mph 100 % 0.09 in
10:57 71.2 °F 71.2 °F 29.73 in NW 9.0 mph 15.0 mph 100 % 0.09 in
11:02 71.1 °F 71.1 °F 29.73 in NW 4.0 mph 15.0 mph 100 % 0.09 in
11:07 71.2 °F 71.2 °F 29.73 in NNW 7.0 mph 15.0 mph 100 % 0.10 in
11:12 71.2 °F 71.2 °F 29.73 in North 4.0 mph 14.0 mph 100 % 0.11 in
11:17 71.2 °F 71.2 °F 29.73 in NNW 8.0 mph 14.0 mph 100 % 0.12 in
11:22 71.2 °F 71.2 °F 29.73 in WNW 4.0 mph 14.0 mph 100 % 0.13 in
11:28 71.2 °F 71.2 °F 29.72 in WNW 10.0 mph 16.0 mph 100 % 0.13 in
11:33 71.2 °F 71.2 °F 29.73 in NW 4.0 mph 16.0 mph 100 % 0.14 in
11:38 71.2 °F 71.2 °F 29.73 in NW 4.0 mph 16.0 mph 100 % 0.13 in
11:43 71.2 °F 71.2 °F 29.73 in North 9.0 mph 16.0 mph 100 % 0.12 in
11:48 71.1 °F 71.1 °F 29.73 in NNW 5.0 mph 16.0 mph 100 % 0.12 in
11:53 71.1 °F 71.1 °F 29.73 in West 3.0 mph 15.0 mph 100 % 0.13 in
11:58 71.1 °F 71.1 °F 29.73 in West 3.0 mph 14.0 mph 100 % 0.12 in
12:03 71.1 °F 71.1 °F 29.73 in NW 5.0 mph 17.0 mph 100 % 0.12 in
12:08 71.2 °F 71.2 °F 29.73 in NW 6.0 mph 17.0 mph 100 % 0.11 in
12:13 71.1 °F 71.1 °F 29.73 in NNE 8.0 mph 17.0 mph 100 % 0.10 in
12:18 71.1 °F 71.1 °F 29.73 in WNW 4.0 mph 16.0 mph 100 % 0.08 in
12:23 71.1 °F 71.1 °F 29.73 in WNW 8.0 mph 16.0 mph 100 % 0.07 in
12:28 71.1 °F 71.1 °F 29.73 in NW 7.0 mph 16.0 mph 100 % 0.06 in
12:33 71.1 °F 71.1 °F 29.73 in NW 6.0 mph 17.0 mph 100 % 0.05 in
12:38 71.1 °F 71.1 °F 29.73 in NNW 7.0 mph 17.0 mph 100 % 0.04 in
12:43 71.1 °F 71.1 °F 29.73 in NNW 6.0 mph 17.0 mph 100 % 0.05 in
12:53 70.9 °F 70.9 °F 29.73 in West 4.0 mph 16.0 mph 100 % 0.06 in
12:58 70.9 °F 70.9 °F 29.73 in NW 7.0 mph 16.0 mph 100 % 0.07 in
13:03 70.9 °F 70.9 °F 29.73 in NW 9.0 mph 16.0 mph 100 % 0.07 in
13:08 70.9 °F 70.9 °F 29.73 in NW 5.0 mph 17.0 mph 100 % 0.09 in
13:13 70.9 °F 70.9 °F 29.72 in ENE 9.0 mph 18.0 mph 100 % 0.09 in
13:18 71.1 °F 71.1 °F 29.72 in WNW 3.0 mph 18.0 mph 100 % 0.09 in
13:23 71.1 °F 71.1 °F 29.71 in WNW 10.0 mph 18.0 mph 100 % 0.09 in
13:28 71.1 °F 71.1 °F 29.71 in NNW 9.0 mph 16.0 mph 100 % 0.10 in
13:33 71.1 °F 71.1 °F 29.70 in NW 10.0 mph 13.0 mph 100 % 0.10 in
13:38 71.2 °F 71.2 °F 29.70 in NW 6.0 mph 13.0 mph 100 % 0.10 in
13:44 71.2 °F 71.2 °F 29.70 in North 8.0 mph 13.0 mph 100 % 0.09 in
13:49 71.2 °F 71.2 °F 29.70 in NW 5.0 mph 13.0 mph 100 % 0.09 in
13:53 71.2 °F 71.2 °F 29.70 in West 6.0 mph 16.0 mph 100 % 0.07 in
13:58 71.2 °F 71.2 °F 29.70 in NW 6.0 mph 16.0 mph 100 % 0.07 in
14:03 71.4 °F 71.4 °F 29.70 in North 5.0 mph 18.0 mph 100 % 0.05 in
14:08 71.4 °F 71.4 °F 29.71 in NW 4.0 mph 18.0 mph 100 % 0.04 in
14:13 71.4 °F 71.4 °F 29.71 in NW 5.0 mph 18.0 mph 100 % 0.03 in
14:18 71.6 °F 71.6 °F 29.71 in NW 8.0 mph 14.0 mph 100 % 0.04 in
14:23 71.6 °F 71.6 °F 29.71 in WSW 6.0 mph 12.0 mph 100 % 0.04 in
14:28 71.6 °F 71.6 °F 29.71 in NNW 9.0 mph 13.0 mph 100 % 0.03 in
14:33 71.4 °F 71.4 °F 29.71 in NW 5.0 mph 14.0 mph 100 % 0.03 in
14:38 71.4 °F 71.4 °F 29.71 in WNW 6.0 mph 16.0 mph 100 % 0.03 in
14:43 71.2 °F 71.2 °F 29.71 in NW 5.0 mph 18.0 mph 100 % 0.03 in
14:53 71.2 °F 71.2 °F 29.71 in NNW 6.0 mph 18.0 mph 100 % 0.03 in
14:58 71.1 °F 71.1 °F 29.71 in West 9.0 mph 15.0 mph 100 % 0.02 in
15:03 71.1 °F 71.1 °F 29.71 in NW 6.0 mph 16.0 mph 100 % 0.02 in
15:13 71.1 °F 71.1 °F 29.71 in NW 8.0 mph 16.0 mph 100 % 0.03 in
15:18 71.1 °F 71.1 °F 29.71 in WNW 9.0 mph 14.0 mph 100 % 0.02 in
15:23 70.9 °F 70.9 °F 29.71 in WNW 4.0 mph 16.0 mph 100 % 0.02 in
15:28 70.9 °F 70.9 °F 29.71 in WNW 7.0 mph 16.0 mph 100 % 0.02 in
15:33 70.9 °F 70.9 °F 29.71 in West 8.0 mph 16.0 mph 100 % 0.02 in
15:38 70.5 °F 70.5 °F 29.71 in NW 7.0 mph 17.0 mph 100 % 0.02 in
15:43 70.5 °F 70.5 °F 29.71 in WNW 7.0 mph 17.0 mph 100 % 0.01 in
15:48 70.5 °F 70.5 °F 29.71 in NW 5.0 mph 17.0 mph 100 % 0.01 in
15:53 70.7 °F 70.7 °F 29.72 in NW 10.0 mph 17.0 mph 100 % 0.01 in
15:58 70.5 °F 70.5 °F 29.72 in West 8.0 mph 17.0 mph 100 % 0.01 in
16:03 70.5 °F 70.5 °F 29.72 in North 11.0 mph 17.0 mph 100 % 0.02 in
16:08 70.5 °F 70.5 °F 29.72 in NW 6.0 mph 16.0 mph 100 % 0.02 in
16:13 70.5 °F 70.5 °F 29.72 in North 9.0 mph 16.0 mph 100 % 0.02 in
16:18 70.5 °F 70.5 °F 29.72 in WNW 6.0 mph 15.0 mph 100 % 0.03 in
16:23 70.5 °F 70.5 °F 29.72 in NNW 7.0 mph 14.0 mph 100 % 0.03 in
16:28 70.5 °F 70.5 °F 29.72 in NNW 11.0 mph 14.0 mph 100 % 0.04 in
16:33 70.3 °F 70.3 °F 29.72 in NW 8.0 mph 15.0 mph 100 % 0.04 in
16:38 70.3 °F 70.3 °F 29.72 in NW 12.0 mph 16.0 mph 100 % 0.05 in
16:43 70.3 °F 70.3 °F 29.72 in NW 13.0 mph 18.0 mph 100 % 0.05 in
16:48 70.3 °F 70.3 °F 29.72 in WNW 6.0 mph 18.0 mph 100 % 0.05 in
16:53 70.3 °F 70.3 °F 29.72 in WNW 9.0 mph 19.0 mph 100 % 0.05 in
16:58 70.3 °F 70.3 °F 29.72 in NW 7.0 mph 19.0 mph 100 % 0.05 in
17:03 70.5 °F 70.5 °F 29.72 in WNW 6.0 mph 19.0 mph 100 % 0.04 in
17:08 70.5 °F 70.5 °F 29.72 in NW 13.0 mph 18.0 mph 100 % 0.04 in
17:13 70.7 °F 70.7 °F 29.71 in NNW 5.0 mph 18.0 mph 100 % 0.03 in
17:18 70.7 °F 70.7 °F 29.72 in WNW 8.0 mph 18.0 mph 100 % 0.02 in
17:23 70.9 °F 70.9 °F 29.72 in WNW 6.0 mph 18.0 mph 100 % 0.02 in
17:25 70.9 °F 70.9 °F 29.72 in WNW 9.0 mph 19.0 mph 100 % 0.01 in
17:30 71.1 °F 71.1 °F 29.72 in WNW 8.0 mph 19.0 mph 100 % 0.01 in
17:35 71.2 °F 71.2 °F 29.72 in NNW 3.0 mph 21.0 mph 100 % 0.00 in
17:40 71.4 °F 71.4 °F 29.72 in North 6.0 mph 21.0 mph 100 % 0.00 in
17:45 71.8 °F 71.8 °F 29.72 in NW 8.0 mph 21.0 mph 100 % 0.00 in
17:50 72.0 °F 71.6 °F 29.72 in NNW 6.0 mph 18.0 mph 99 % 0.00 in
17:55 72.5 °F 71.6 °F 29.72 in WNW 5.0 mph 20.0 mph 97 % 0.00 in
18:00 73.0 °F 71.8 °F 29.72 in NNW 14.0 mph 20.0 mph 96 % 0.00 in
18:05 73.4 °F 71.6 °F 29.71 in West 4.0 mph 20.0 mph 94 % 0.00 in
18:10 73.8 °F 71.6 °F 29.71 in WSW 8.0 mph 17.0 mph 93 % 0.00 in
18:15 74.1 °F 71.6 °F 29.71 in NNW 8.0 mph 19.0 mph 92 % 0.00 in
18:21 74.3 °F 71.8 °F 29.71 in WNW 6.0 mph 19.0 mph 92 % 0.00 in
18:25 74.5 °F 71.4 °F 29.71 in NW 4.0 mph 19.0 mph 90 % 0.00 in
18:31 74.8 °F 71.8 °F 29.71 in NW 7.0 mph 18.0 mph 90 % 0.00 in
18:36 75.0 °F 71.6 °F 29.71 in North 5.0 mph 18.0 mph 89 % 0.00 in
18:41 75.4 °F 72.0 °F 29.70 in NW 4.0 mph 13.0 mph 89 % 0.00 in
18:46 75.7 °F 72.0 °F 29.70 in NW 8.0 mph 17.0 mph 88 % 0.00 in
18:51 76.1 °F 72.0 °F 29.70 in West 4.0 mph 17.0 mph 87 % 0.00 in
18:56 76.3 °F 71.8 °F 29.70 in NW 21.0 mph 21.0 mph 86 % 0.00 in
19:01 75.9 °F 71.4 °F 29.71 in WNW 11.0 mph 24.0 mph 86 % 0.00 in
19:06 75.6 °F 71.4 °F 29.71 in SW 5.0 mph 24.0 mph 87 % 0.00 in
19:11 75.4 °F 71.2 °F 29.71 in WNW 13.0 mph 24.0 mph 87 % 0.00 in
19:16 75.4 °F 71.2 °F 29.71 in North 17.0 mph 18.0 mph 87 % 0.00 in
19:21 75.0 °F 70.9 °F 29.72 in NNE 9.0 mph 18.0 mph 87 % 0.00 in
19:26 74.8 °F 70.7 °F 29.72 in NE 6.0 mph 18.0 mph 87 % 0.00 in
19:31 74.7 °F 70.5 °F 29.72 in NNE 12.0 mph 18.0 mph 87 % 0.00 in
19:36 74.5 °F 70.3 °F 29.71 in NNE 3.0 mph 15.0 mph 87 % 0.00 in
19:41 74.5 °F 70.7 °F 29.71 in NW 6.0 mph 15.0 mph 88 % 0.00 in
19:46 74.3 °F 70.5 °F 29.72 in NNW 5.0 mph 16.0 mph 88 % 0.00 in
19:51 74.1 °F 70.3 °F 29.71 in WNW 9.0 mph 16.0 mph 88 % 0.00 in
19:56 74.3 °F 70.5 °F 29.72 in West 5.0 mph 16.0 mph 88 % 0.00 in
20:01 74.5 °F 70.3 °F 29.72 in NW 4.0 mph 17.0 mph 87 % 0.00 in
20:06 74.7 °F 70.5 °F 29.71 in North 11.0 mph 17.0 mph 87 % 0.00 in
20:11 74.7 °F 70.2 °F 29.71 in NW 6.0 mph 17.0 mph 86 % 0.00 in
20:16 74.7 °F 70.2 °F 29.71 in NNW 7.0 mph 15.0 mph 86 % 0.00 in
20:21 74.7 °F 70.2 °F 29.72 in WNW 6.0 mph 15.0 mph 86 % 0.00 in
20:22 74.7 °F 70.2 °F 29.72 in WNW 3.0 mph 15.0 mph 86 % 0.00 in
20:27 74.7 °F 70.2 °F 29.72 in NNW 6.0 mph 15.0 mph 86 % 0.00 in
20:32 74.7 °F 70.2 °F 29.72 in WNW 4.0 mph 15.0 mph 86 % 0.00 in
20:37 74.7 °F 70.2 °F 29.72 in NW 6.0 mph 15.0 mph 86 % 0.00 in
20:42 74.7 °F 70.2 °F 29.72 in NNW 5.0 mph 15.0 mph 86 % 0.00 in
20:47 74.5 °F 70.0 °F 29.72 in SW 7.0 mph 15.0 mph 86 % 0.00 in
20:52 74.5 °F 70.0 °F 29.72 in WNW 6.0 mph 15.0 mph 86 % 0.00 in
20:57 74.5 °F 70.0 °F 29.72 in NNW 10.0 mph 15.0 mph 86 % 0.00 in
21:02 74.5 °F 70.0 °F 29.73 in WNW 5.0 mph 15.0 mph 86 % 0.00 in
21:07 74.5 °F 69.6 °F 29.73 in NW 7.0 mph 14.0 mph 85 % 0.00 in
21:12 74.5 °F 70.0 °F 29.73 in WNW 7.0 mph 15.0 mph 86 % 0.00 in
21:17 74.1 °F 69.6 °F 29.73 in WNW 11.0 mph 15.0 mph 86 % 0.00 in
21:22 74.1 °F 69.6 °F 29.73 in NW 3.0 mph 15.0 mph 86 % 0.00 in
21:27 73.9 °F 69.8 °F 29.73 in WNW 4.0 mph 15.0 mph 87 % 0.00 in
21:32 74.1 °F 70.0 °F 29.74 in WNW 1.0 mph 15.0 mph 87 % 0.00 in
21:37 74.5 °F 70.3 °F 29.74 in NW 6.0 mph 17.0 mph 87 % 0.00 in
21:42 74.5 °F 70.0 °F 29.74 in WNW 10.0 mph 17.0 mph 86 % 0.00 in
21:47 74.1 °F 69.6 °F 29.74 in NNW 5.0 mph 17.0 mph 86 % 0.00 in
21:52 74.1 °F 70.0 °F 29.75 in NW 4.0 mph 14.0 mph 87 % 0.00 in
21:57 73.9 °F 69.8 °F 29.75 in WNW 8.0 mph 14.0 mph 87 % 0.00 in
22:02 73.9 °F 69.8 °F 29.75 in NW 6.0 mph 13.0 mph 87 % 0.00 in
22:07 73.9 °F 69.8 °F 29.75 in NNW 5.0 mph 13.0 mph 87 % 0.00 in
22:12 73.9 °F 69.8 °F 29.75 in NNW 7.0 mph 13.0 mph 87 % 0.00 in
22:17 73.8 °F 69.6 °F 29.75 in NW 10.0 mph 12.0 mph 87 % 0.00 in
22:22 73.9 °F 69.8 °F 29.75 in WNW 6.0 mph 23.0 mph 87 % 0.00 in
22:27 73.9 °F 70.2 °F 29.75 in WNW 6.0 mph 23.0 mph 88 % 0.00 in
22:32 73.9 °F 70.2 °F 29.75 in WNW 7.0 mph 23.0 mph 88 % 0.00 in
22:37 73.9 °F 70.2 °F 29.75 in WNW 4.0 mph 15.0 mph 88 % 0.00 in
22:42 73.9 °F 70.2 °F 29.74 in NW 6.0 mph 12.0 mph 88 % 0.00 in
22:45 73.9 °F 70.2 °F 29.74 in WNW 4.0 mph 12.0 mph 88 % 0.00 in
22:50 73.9 °F 70.2 °F 29.74 in NNW 6.0 mph 12.0 mph 88 % 0.00 in
22:55 73.9 °F 70.2 °F 29.75 in NNW 9.0 mph 13.0 mph 88 % 0.00 in
23:00 73.8 °F 70.0 °F 29.75 in WNW 3.0 mph 16.0 mph 88 % 0.00 in
23:05 73.8 °F 70.0 °F 29.75 in WNW 6.0 mph 16.0 mph 88 % 0.00 in
23:10 73.8 °F 70.3 °F 29.75 in NW 8.0 mph 16.0 mph 89 % 0.00 in
23:15 73.6 °F 70.2 °F 29.74 in NNW 5.0 mph 17.0 mph 89 % 0.00 in
23:20 73.6 °F 70.2 °F 29.74 in NW 8.0 mph 17.0 mph 89 % 0.00 in
23:25 73.6 °F 70.2 °F 29.74 in West 3.0 mph 17.0 mph 89 % 0.00 in
23:30 73.4 °F 70.3 °F 29.74 in NNW 5.0 mph 16.0 mph 90 % 0.00 in
23:35 73.4 °F 70.3 °F 29.74 in WNW 6.0 mph 15.0 mph 90 % 0.00 in
23:40 73.4 °F 70.3 °F 29.74 in NW 9.0 mph 13.0 mph 90 % 0.00 in
23:45 73.4 °F 70.3 °F 29.74 in NW 3.0 mph 14.0 mph 90 % 0.00 in
23:50 73.6 °F 70.5 °F 29.73 in WNW 11.0 mph 14.0 mph 90 % 0.00 in
23:55 73.6 °F 70.2 °F 29.73 in NNW 9.0 mph 14.0 mph 89 % 0.00 in
Spring, Texas: Villages of Bridgestone
Compliments of Weather Underground - 2.75 mb

Script developed by  Jim McMurry - jmcmurry@mwt.net Adapted for the template by  Wim van der Kuil - Leuven-Template.eu

You find our weather info also at:

UK Metoffice

WeatherCloud

Weather Underground

Mid-South Weather Network

AWEKAS

Citizen Weather Observer Program (CWOP)

HAMweather, WeatherForYou, PWS Weather

Equipment we use:

Weather-station
Davis Vantage Vue

Weather-program
Meteohub

Weather-server
Debian 7.9 x86 (Guest)

Provider
DreamHost

Davis Vantage Vue

Meteohub

Debian 7.9 x86 (Guest)

DreamHost